• Join FlightAware (Why Join?)
  • Login
  • US Flag 
07:45PM EDT


 

Airport Tracker/Info


-or-


 

Live Flight TrackerFlight Track Log ✈ N70RB ✈ 04-Oct-2013 ✈ KBTL - KBTL

Flight Track Log - Related Links

Times and Time Zones

All times are in EDT time to prevent confusion due to time zone crossing. See the N70RB flight status page for this flight to view local times or setup timezone preferences in your user account.

Time Position Orientation Groundspeed Altitude Reporting Facility
EDT Latitude Longitude Course Direction KTS MPH feet Rate Location/Type
03:13PM 42.2803 -85.3044 144° Southeast 114 131 2,600  Level Chicago Center
03:14PM 42.3036 -85.3061 357° North 111 128 3,000 600 Climbing Chicago Center
03:15PM 42.3419 -85.2906 17° North 119 137 3,900 480 Climbing Chicago Center
03:16PM 42.3733 -85.2778 17° North 117 135 4,100  Climbing Chicago Center
03:17PM 42.3065 -85.2501 304° West  Level Estimated
03:17PM 42.4097 -85.2647 15° North 131 151 4,000  Level Chicago Center
03:18PM 42.3065 -85.2501 144° Southeast  Level Estimated
03:18PM 42.4456 -85.2478 19° North 135 155 4,000  Level Chicago Center
03:19PM 42.4814 -85.2350 15° North 134 154 4,000  Level Chicago Center
03:20PM 42.5253 -85.2164 17° North 136 157 4,000  Level Chicago Center
03:21PM 42.5583 -85.1897 31° Northeast 139 160 4,000  Level Chicago Center
03:22PM 42.5342 -85.1747 155° Southeast 129 148 4,000  Level Chicago Center
03:23PM 42.5150 -85.2122 235° Southwest 124 143 4,000  Level Chicago Center
03:24PM 42.5144 -85.2525 269° West 131 151 4,000  Level Chicago Center
03:25PM 42.5403 -85.2242 39° Northeast 130 150 4,000  Level Chicago Center
03:26PM 42.5472 -85.1706 80° East 135 155 4,000  Level Chicago Center
03:27PM 42.5214 -85.1978 218° Southwest 123 142 4,000  Level Chicago Center
03:28PM 42.5050 -85.2392 242° Southwest 123 142 4,000  Level Chicago Center
03:29PM 42.5342 -85.2339 North 136 157 4,000  Level Chicago Center
03:30PM 42.5500 -85.1828 67° East 134 154 4,000  Level Chicago Center
03:31PM 42.5272 -85.1789 173° South 147 169 4,100  Climbing Chicago Center
03:32PM 42.5081 -85.2256 241° Southwest 121 139 4,000 -60 Descending Chicago Center
03:33PM 42.5286 -85.2422 329° Northwest 132 152 4,000  Level Chicago Center
03:34PM 42.5453 -85.1956 64° Northeast 136 157 4,000  Level Chicago Center
03:36PM 42.5253 -85.1806 151° Southeast 137 158 4,000  Level Chicago Center
03:37PM 42.5092 -85.2203 241° Southwest 123 142 4,000  Level Chicago Center
03:38PM 42.5336 -85.2467 322° Northwest 141 162 4,000  Level Chicago Center
03:39PM 42.5414 -85.2917 283° West 129 148 4,000  Level Chicago Center
03:40PM 42.5553 -85.3369 293° West 129 148 4,000  Level Chicago Center
03:41PM 42.5694 -85.3789 295° West 126 145 4,000  Level Chicago Center
03:42PM 42.5839 -85.4236 294° West 128 147 4,000  Level Chicago Center
03:43PM 42.5814 -85.4667 266° West 127 146 4,000  Level Chicago Center
03:44PM 42.5564 -85.5011 225° Southwest 134 154 4,000  Level Chicago Center
03:45PM 42.5692 -85.4633 65° Northeast 140 161 4,000  Level Chicago Center
03:46PM 42.5906 -85.4264 52° Northeast 134 154 4,000 -60 Level Chicago Center
03:47PM 42.5656 -85.4208 171° South 137 158 3,900  Descending Chicago Center
03:48PM 42.5550 -85.4661 252° West 128 147 4,000  Climbing Chicago Center
03:49PM 42.5739 -85.4831 327° Northwest 127 146 4,000  Level Chicago Center
03:50PM 42.5900 -85.4239 70° East 137 158 4,100  Climbing Chicago Center
03:51PM 42.5650 -85.4258 183° South 133 153 4,000  Descending Chicago Center
03:52PM 42.5544 -85.4672 251° West 119 137 4,100  Climbing Chicago Center
03:53PM 42.5789 -85.4797 339° North 139 160 4,000  Descending Chicago Center
03:54PM 42.5903 -85.4272 74° East 143 165 4,100  Climbing Chicago Center
03:55PM 42.5664 -85.4286 182° South 133 153 4,000 -60 Descending Chicago Center
03:56PM 42.5547 -85.4728 250° West 126 145 4,000 -60 Level Chicago Center
03:57PM 42.5828 -85.4689 North 137 158 3,900  Descending Chicago Center
03:58PM 42.5931 -85.4197 74° East 137 158 4,000  Climbing Chicago Center
03:59PM 42.5683 -85.4289 195° South 126 145 4,000  Level Chicago Center
04:00PM 42.5583 -85.4714 252° West 120 138 4,000  Level Chicago Center
04:01PM 42.5856 -85.4550 24° Northeast 130 150 4,000  Level Chicago Center
04:02PM 42.5875 -85.4092 87° East 136 157 4,000  Level Chicago Center
04:03PM 42.5681 -85.4383 228° Southwest 124 143 4,000  Level Chicago Center
04:04PM 42.5411 -85.4478 194° South 126 145 4,000  Level Chicago Center
04:06PM 42.5392 -85.3953 93° East 137 158 4,000  Level Chicago Center
04:07PM 42.5383 -85.3431 91° East 140 161 4,000  Level Chicago Center
04:08PM 42.5378 -85.2811 91° East 138 159 4,000  Level Chicago Center
04:09PM 42.5372 -85.2278 91° East 140 161 4,000 -240 Level Chicago Center
04:10PM 42.5172 -85.1833 121° Southeast 140 161 3,600 -600 Descending Chicago Center
04:11PM 42.4900 -85.1436 133° Southeast 145 167 2,800 -540 Descending Chicago Center
04:12PM 42.4625 -85.1025 132° Southeast 145 167 2,500 -300 Descending Chicago Center
04:13PM 42.4325 -85.0972 173° South 156 180 2,200 -180 Descending Chicago Center
04:14PM 42.4033 -85.1339 223° Southwest 133 153 2,200  Level Chicago Center
04:15PM 42.3767 -85.1653 221° Southwest 124 143 2,200 -60 Level Chicago Center
04:16PM 42.3556 -85.1936 225° Southwest 119 137 2,100 -420 Descending Chicago Center
04:17PM 42.3331 -85.2236 225° Southwest 107 123 1,400 -720 Descending Chicago Center